Location: Bogis-Bossey
(46.3500°N, 6.1667°E)
Time: 22:15:39
(UTC+00:00)

Cosmos 1356 Rocket - Visible Passes

Search period start: 30 January 2023 00:00
Search period end: 09 February 2023 00:00
Orbit: 538 x 594 km, 81.2° (Epoch: 30 January)

Date Brightness Start Highest point End Pass type
(mag) Time Alt. Az. Time Alt. Az. Time Alt. Az.
30 Jan 5.2 06:18:45 10° N 06:22:22 31° ENE 06:25:59 10° SE visible
31 Jan 4.8 06:19:17 10° N 06:23:04 39° ENE 06:26:53 10° SE visible
01 Feb 4.4 06:19:51 10° N 06:23:46 49° ENE 06:27:43 10° SSE visible
02 Feb 3.9 06:20:27 10° N 06:24:27 63° ENE 06:28:29 10° SSE visible
03 Feb 3.5 06:21:04 10° N 06:25:07 80° E 06:29:12 10° SSE visible
04 Feb 6.7 04:47:44 10° NE 04:48:17 10° ENE 04:48:49 10° ENE visible
04 Feb 3.3 06:21:43 10° NNW 06:25:46 81° W 06:29:51 10° S visible
05 Feb 6.4 04:47:14 10° NE 04:49:04 13° ENE 04:50:54 10° E visible
06 Feb 6.3 04:47:20 10° NNE 04:49:48 15° ENE 04:52:18 10° ESE visible
06 Feb 5.8 18:48:23 10° S 18:48:29 11° S 18:48:29 11° S visible
07 Feb 6.1 04:47:37 10° NNE 04:50:33 19° ENE 04:53:29 10° ESE visible
07 Feb 4.4 18:48:55 10° S 18:51:03 30° S 18:51:03 30° S visible
08 Feb 5.8 04:47:59 10° NNE 04:51:16 23° ENE 04:54:35 10° ESE visible
08 Feb 3.1 18:49:30 10° S 18:53:27 81° E 18:53:50 70° NE visible
